Location: Sewell
(39.7660°N, 75.1450°W)
Time: 20:44:35
(UTC-04:00)

ISS - Visible Passes

Search period start: 19 April 2015 00:00
Search period end: 29 April 2015 00:00
Orbit: 395 x 403 km, 51.6° (Epoch: 19 April)

Date Brightness Start Highest point End Pass type
(mag) Time Alt. Az. Time Alt. Az. Time Alt. Az.
19 Apr -2.1 20:28:16 10° NW 20:31:13 30° NNE 20:33:40 13° E visible
19 Apr -1.0 22:04:39 10° WNW 22:06:13 22° W 22:06:13 22° W visible
20 Apr -3.2 21:10:27 10° WNW 21:13:40 64° SW 21:14:30 43° SSE visible
21 Apr -3.1 20:16:25 10° NW 20:19:39 61° NE 20:22:48 10° ESE visible
21 Apr -0.7 21:54:01 10° W 21:55:21 13° WSW 21:55:21 13° WSW visible
22 Apr -1.6 20:58:58 10° WNW 21:01:46 26° SW 21:03:41 15° S visible
24 Apr -0.5 20:48:13 10° WSW 20:49:33 12° SW 20:50:46 10° SSW visible
